Погода в Суэце

Египет     29°57′24″N   32°30′03″E
темп.,
°C
ветер,
м/с
пор.,
м/с
влажн.,
%
обл.,
%
осадки,
мм/ч
давл.,
гПа
погр.,
м
19 апреля, пн
пн1923:00+27ю4428100 0.0 101328
02:00+25ю3330100 0.0 101120
05:00+26ююв4427100 0.0 101125
08:00+31ю462196 0.0 1012229
11:00+35ю7916100 0.0 1011516
14:00+35ю6915100 0.0 1009532
17:00+33ю5920100 0.0 1009243
20:00+30ю562676 0.0 101049
20 апреля, вт
вт2023:00+27ю3430100 0.0 101028
02:00+27сз3427100 0.0 100939
05:00+21сз71154100 0.0 1011210
08:00+22ссз77605 0.0 1014504
11:00+28с773439 0.0 1014800
14:00+30с1092626 0.0 10121067
17:00+25с1011330 0.0 1013828
20:00+19с710530 0.0 1016371
21 апреля, ср
ср2123:00+17ссз69660 0.0 1017247
02:00+16ссз79745 0.0 1016215
05:00+15ссз698057 0.0 1017174
08:00+19с785587 0.0 1018634
11:00+26с882787 0.0 1016923
14:00+28с9922100 0.0 10151046
17:00+24с91031100 0.0 1016837
20:00+19ссз71152100 0.0 1018271
22 апреля, чт
чт2223:00+16ссз68699 0.0 1018136
02:00+15ссз697663 0.0 1018143
05:00+15ссз79789 0.0 1017144
08:00+20с674521 0.0 1018439
11:00+26с992565 0.0 1017880
14:00+28с109215 0.0 10161056
17:00+25с1010270 0.0 1016866
20:00+18ссз695117 0.0 1018135
23 апреля, пт
пт2323:00+16ссз686699 0.0 1018105
02:00+16ссз6872100 0.0 1017116
05:00+15сз68765 0.0 1017107
08:00+21с66395 0.0 1017415
11:00+29с67145 0.0 1015996
14:00+31с87110 0.0 10131265
17:00+28с991875 0.0 1013754
20:00+20ссз794023 0.0 1015117